Flag for Canada Weather past 2 weeks in Burnaby, British Columbia, Canada

Now
41 °F

Mostly cloudy.


Feels Like: 37 °F
Forecast: 35 / 40 °F
Wind: 6 mph from East

Location: Vancouver International Air-Port

Current Time: Dec 26, 2014 at 12:07:54 PM

Latest Report: Dec 26, 2014 at 11:00 AM


Visibility: 15 mi

Pressure: 30.39 "Hg

Humidity: 81%

Dew point: 36 °F

Location of BurnabyLocation

Historic Weather in Burnaby — Graph

°F

Burnaby temperature yesterday

Maximum temperature yesterday: 45 °F (at 2:00 PM)
Minimum temperature yesterday: 34 °F (at 5:00 AM)
Average temperature yesterday: 38 °F

Past Weeks' High & Low Weather Summary

 TemperatureHumidityPressure
High54 °F (Dec 11, 10:00 PM)100% (Dec 12, 6:00 PM)30.39 "Hg (Dec 12, 6:00 PM)
Low28 °F (Dec 15, 4:00 AM)66% (Dec 15, 1:00 PM)29.15 "Hg (Dec 11, 6:00 PM)
Average43 °F89%29.92 "Hg
* Reported Dec 11 11:00 AM — Dec 26 11:00 AM, Burnaby, Weather by CustomWeather, © 2014

Note: Actual official high and low records may vary slightly from our data, if they occured in-between our weather recording intervals... More about our weather records

Advertising

Burnaby weather history for previous 24 hours

 ConditionsComfort  
Time TempWeatherWind HumidityBarometerVisibility
11:00 AM
Dec 26
41 °FMostly cloudy.6 mph81%30.39 "Hg15 mi
10:00 AM39 °FMostly cloudy.6 mph93%30.39 "Hg15 mi
9:00 AM39 °FLight rain. Overcast.8 mph87%30.38 "Hg10 mi
8:00 AM39 °FOvercast.5 mph87%30.36 "Hg15 mi
7:00 AM39 °FMostly cloudy.3 mph87%30.35 "Hg15 mi
6:00 AM37 °FOvercast.No wind93%30.36 "Hg15 mi
5:00 AM37 °FMostly cloudy.2 mph93%30.34 "Hg15 mi
4:00 AM37 °FOvercast.2 mph93%30.34 "Hg15 mi
3:00 AM37 °FOvercast.2 mph93%30.34 "Hg15 mi
2:00 AM37 °FPassing clouds.6 mph93%30.32 "Hg15 mi
1:00 AM37 °FPassing clouds.2 mph93%30.31 "Hg15 mi
12:00 AM36 °FPassing clouds.3 mph93%30.29 "Hg15 mi
11:00 PM
Dec 25
36 °FPassing clouds.2 mph100%30.29 "Hg15 mi
10:00 PM36 °FPassing clouds.3 mph93%30.29 "Hg15 mi
9:00 PM36 °FPassing clouds.5 mph93%30.28 "Hg15 mi
8:00 PM37 °FPassing clouds.6 mph93%30.29 "Hg15 mi
7:00 PM36 °FPassing clouds.3 mph87%30.26 "Hg15 mi
6:00 PM37 °FPassing clouds.No wind93%30.24 "Hg20 mi
5:00 PM39 °FPartly cloudy.No wind87%30.23 "Hg20 mi
4:00 PM39 °FMore clouds than sun.2 mph87%30.23 "Hg20 mi
3:00 PM43 °FOvercast.5 mph76%30.22 "Hg20 mi
2:00 PM45 °FOvercast.7 mph71%30.20 "Hg15 mi
1:00 PM43 °FBroken clouds.9 mph81%30.20 "Hg15 mi
12:00 PM43 °FScattered clouds.5 mph87%30.19 "Hg15 mi
Weather by CustomWeather, © 2014

See weather overviewHow to use our weather pages